SCP
0 0 0 0 0 0 0 0 0 0 0 0 0 0 1 1 1 1 1 1 1 2 2 1 1 1 1 1 1 1 1 1 1 1 1 1 1 1 1 1 1 1 1 1
0 0 0 0 0 0 0 0 0 0 0 0 0 1 1 1 1 1 1 1 1 1 1 1 1 1 1 1 1 1 1 1 1 1 1 1 1 1 1 1 1 1 1 1
0 0 0 0 0 0 0 0 0 0 0 0 1 1 1 1 1 1 1 1 1 1 1 1 1 1 1 1 1 1 1 1 1 1 1 1 1 1 1 1 1 1 1 1
0 0 0 0 0 0 0 0 0 0 0 1 1 1 1 1 1 1 1 1 1 1 1 1 1 1 1 1 1 1 1 1 1 1 1 1 1 1 1 1 1 1 1 1
0 0 0 0 0 0 0 0 0 0 1 1 1 1 1 1 1 1 1 1 1 1 1 1 1 1 1 1 1 1 1 1 1 1 1 1 1 1 1 1 1 1 1 1
0 0 0 0 0 0 0 0 0 0 1 1 1 1 1 1 1 1 1 1 1 1 1 1 1 1 1 2 1 1 1 1 2 1 1 1 1 1 1 1 1 1 1 1
0 0 0 0 0 0 0 0 0 0 1 1 1 1 1 1 1 1 1 1 1 1 1 1 1 1 2 2 2 2 2 2 1 1 1 1 1 1 1 1 1 1 1 1
0 0 0 0 0 0 0 0 0 0 1 1 1 1 1 1 1 1 1 1 1 1 1 1 1 1 1 2 2 2 2 2 1 1 1 1 1 1 1 1 1 1 1 1
0 0 0 0 0 0 0 0 0 0 0 1 1 1 1 1 1 1 1 1 1 1 1 1 1 1 1 2 2 2 2 2 1 1 1 1 1 1 1 1 1 1 1 1
0 0 0 0 0 0 0 0 0 0 0 0 0 1 1 1 1 1 1 1 1 1 1 1 1 1 1 1 2 2 2 1 1 1 1 1 1 1 1 1 1 1 1 1
0 0 0 0 0 0 0 0 0 0 0 0 0 0 0 0 0 0 0 0 0 0 1 1 1 1 1 1 2 2 1 1 1 1 1 1 1 1 1 1 1 1 1 1
0 0 0 0 0 0 0 0 0 0 0 0 0 0 0 0 0 0 0 0 0 0 0 1 1 1 1 1 1 1 1 1 1 1 1 1 1 1 0 0 0 0 0 0
0 0 0 0 0 0 0 0 0 0 0 0 0 0 0 0 0 0 0 0 0 0 0 1 1 1 1 1 1 1 1 1 1 1 1 1 1 1 0 0 0 0 0 0
0 0 0 0 0 0 0 0 0 0 0 0 0 0 0 0 0 0 0 0 0 0 0 1 1 1 1 1 1 1 1 1 1 1 1 0 0 0 0 0 0 0 0 0
0 0 0 0 0 0 0 0 0 0 0 0 0 0 0 0 0 0 0 0 0 0 0 1 1 1 1 1 1 1 1 0 0 0 0 0 0 0 0 0 0 0 0 0
0 0 0 0 0 0 0 0 0 0 0 0 0 0 0 0 0 0 0 0 0 0 0 0 1 1 1 0 0 0 0 0 0 0 0 0 0 0 0 0 0 0 0 0
0 0 0 0 0 0 0 0 0 0 0 0 0 0 0 0 0 0 0 0 0 0 0 0 0 1 0 0 0 0 0 0 0 0 0 0 0 0 0 0 0 0 0 0
0 0 0 0 0 0 0 0 0 0 0 0 0 0 0 0 0 0 0 0 0 0 0 0 0 0 0 0 0 0 0 0 0 0 0 0 0 0 0 0 0 0 0 0
0 0 0 0 0 0 0 0 0 0 0 0 0 0 0 0 0 0 0 0 0 0 0 0 0 0 0 0 0 0 0 0 0 0 0 0 0 0 0 0 0 0 0 0
0 0 0 0 0 0 0 0 0 0 0 0 0 0 0 0 0 0 0 0 0 0 0 0 0 0 0 0 0 0 0 0 0 0 0 0 0 0 0 0 0 0 0 0
0 0 0 0 0 0 0 0 0 0 0 0 0 0 0 0 0 0 0 0 0 0 0 0 0 0 0 0 0 0 0 0 0 0 0 0 0 0 0 0 0 0 0 0
0 0 0 0 0 0 0 0 0 0 0 0 0 0 0 0 0 0 0 0 0 0 0 0 0 0 0 0 0 0 0 0 0 0 0 0 0 0 0 0 0 0 0 0
0 0 0 0 0 0 0 0 0 0 0 0 0 0 0 0 0 0 0 0 0 0 0 0 0 0 0 0 0 0 0 0 0 0 0 0 0 0 0 0 0 0 0 0
0 0 0 0 0 0 0 0 0 0 0 0 0 0 0 0 0 0 0 0 0 0 0 0 0 0 0 0 0 0 0 0 0 0 0 0 0 0 0 0 0 0 0 0
0 0 0 0 0 0 0 0 0 0 0 0 0 0 0 0 0 0 0 0 0 0 0 0 0 0 0 0 0 0 0 0 0 0 0 0 0 0 0 0 0 0 0 0
0 0 0 0 0 0 0 0 0 0 0 0 0 0 0 0 0 0 0 0 0 0 0 0 0 0 0 0 0 0 0 0 0 0 0 0 0 0 0 0 0 0 0 0
0 0 0 0 0 0 0 0 0 0 0 0 0 0 0 0 0 0 0 0 0 0 0 0 0 0 0 0 0 0 0 0 0 0 0 0 0 0 0 0 0 0 0 0
Wind_Speed
11 10 11 12 12 12 14 15 16 13 12 8 5 4 4 2 1 1 2 2 2 3 4 5 5 6 6 6 6 6 6 6 6 6 6 6 5 5 5 6 6 6 6 6
12 12 12 13 13 14 14 14 15 15 12 5 4 3 3 2 2 2 2 2 2 3 4 5 5 6 6 6 6 6 6 6 5 5 5 5 5 5 5 6 6 6 6 6
11 9 11 15 12 12 12 11 12 13 7 3 3 3 3 2 2 2 2 2 2 3 3 3 4 5 6 6 6 6 6 6 6 6 6 5 5 5 5 5 5 5 5 6
9 8 14 6 2 6 9 8 8 7 4 4 3 2 2 2 2 2 2 2 1 1 3 3 3 4 5 5 6 6 6 6 5 5 5 5 4 4 4 4 4 4 5 5
8 11 12 6 3 4 7 7 5 4 3 2 2 4 4 2 2 1 1 1 1 1 1 2 3 4 4 5 5 5 5 5 5 5 5 5 5 4 4 4 4 5 5 5
9 11 11 3 1 3 7 8 2 2 2 2 4 6 2 1 2 1 1 1 0 1 1 2 3 4 4 5 5 5 5 5 5 5 5 5 4 4 4 4 4 5 5 5
12 12 9 2 2 4 9 2 1 3 3 4 6 5 1 1 2 1 2 2 2 1 1 1 2 3 4 4 4 4 4 4 4 5 5 5 5 4 4 4 4 5 4 5
9 11 6 4 2 3 4 4 2 3 4 4 3 2 1 2 1 1 2 2 1 1 1 0 1 3 3 3 3 3 3 4 4 4 4 3 4 5 4 5 5 6 5 6
5 4 3 2 2 3 3 3 2 3 3 3 3 2 1 1 1 1 1 1 1 1 1 1 2 3 3 3 2 2 3 3 3 3 3 3 4 5 5 5 6 5 5 5
7 5 4 4 2 2 3 3 3 3 2 3 3 1 1 1 0 1 1 1 1 1 2 2 2 2 3 2 2 3 3 3 3 3 4 3 4 4 4 5 5 5 5 5
9 7 6 4 4 4 4 4 3 3 3 3 2 2 2 1 1 1 1 1 1 2 2 3 3 3 3 2 2 3 3 3 3 4 3 3 4 3 5 4 3 4 5 5
7 5 6 6 5 5 4 4 3 3 3 3 2 2 2 2 2 2 2 2 2 2 3 4 4 3 3 3 4 4 4 3 3 4 3 4 4 4 2 4 3 4 5 6
8 7 7 7 6 5 5 4 4 3 3 3 3 3 3 3 3 3 3 3 3 3 4 4 4 4 3 3 4 4 5 4 4 5 5 5 5 5 4 3 5 7 8 7
6 6 7 6 5 4 4 4 3 3 3 3 3 3 4 4 3 4 4 4 4 4 5 5 5 4 4 4 4 5 6 5 6 5 6 6 6 6 5 5 5 4 5 7
7 7 7 5 4 4 4 3 3 3 3 3 3 4 4 4 4 4 4 4 5 5 5 5 5 5 4 4 4 5 5 5 5 5 6 6 5 5 5 6 5 4 4 3
7 6 5 5 4 4 4 4 3 3 3 3 4 4 4 4 4 4 4 4 5 6 5 6 6 5 4 5 5 5 5 5 6 6 6 5 5 5 5 5 5 4 4 4
7 6 5 4 4 4 4 4 3 3 3 4 4 3 4 4 4 4 4 4 4 5 5 6 6 5 4 5 5 5 5 4 5 6 6 5 5 5 5 5 4 4 4 3
6 6 6 5 5 5 4 4 3 3 3 3 3 3 3 4 4 4 4 4 5 5 5 5 5 4 5 5 5 5 4 4 5 5 5 5 5 5 5 5 5 5 4 3
5 5 5 4 5 4 4 3 3 3 3 3 3 3 3 4 4 5 5 5 6 6 5 4 3 5 5 4 5 4 5 5 5 5 4 4 5 5 5 4 4 4 4 3
3 3 3 3 3 3 3 3 3 3 3 3 4 4 4 4 4 4 4 5 5 5 5 4 4 4 4 3 4 4 4 5 5 4 3 4 4 4 4 4 4 4 3 4
2 2 3 3 2 2 2 3 3 3 3 3 4 4 4 4 4 4 5 4 3 4 4 3 3 3 3 3 5 4 4 3 3 3 3 3 3 3 3 3 3 3 3 3
1 2 2 1 1 1 1 1 2 2 2 3 3 3 3 3 3 3 3 3 3 2 3 2 2 3 4 5 4 3 3 3 3 3 3 3 3 3 2 3 3 2 3 3
1 1 1 1 1 0 0 1 1 1 2 2 2 3 3 3 3 3 2 2 2 2 3 2 4 4 4 4 3 3 2 3 3 2 2 2 2 2 2 3 2 2 2 2
1 1 1 1 1 1 0 0 1 1 2 2 2 2 3 2 2 1 1 2 1 2 2 2 2 3 4 3 2 2 2 2 2 2 2 2 2 2 2 2 2 2 2 3
1 0 0 0 0 0 0 1 1 2 2 2 2 1 2 1 1 2 2 2 1 2 2 1 1 3 3 2 2 2 2 2 3 3 2 2 2 2 2 2 2 2 2 3
0 1 1 1 1 1 2 2 2 2 2 2 1 1 1 1 1 1 1 1 2 2 2 2 1 2 2 2 2 3 3 2 2 2 3 3 3 2 2 2 2 2 2 2
1 1 1 1 1 2 2 2 2 2 2 2 2 1 1 1 1 1 1 1 1 1 2 2 2 2 2 2 2 2 2 2 2 3 3 2 3 3 3 3 2 2 2 2
Wind_Direction
270 276 270 261 258 251 251 258 263 264 264 264 265 265 260 247 203 166 137 129 140 144 145 149 154 159 159 161 164 166 168 174 179 186 193 201 206 211 216 223 222 221 226 227
261 260 261 262 257 252 252 254 255 259 259 259 264 255 247 233 210 187 162 146 147 144 147 151 157 161 161 163 169 169 169 172 171 178 185 191 203 209 214 222 228 224 225 229
262 259 259 250 249 249 249 249 253 260 264 257 242 237 239 233 218 193 160 142 149 148 157 166 165 166 164 166 171 173 174 177 176 181 186 191 204 204 211 216 223 224 224 230
263 257 248 251 261 263 257 254 265 269 255 240 240 230 234 223 214 184 158 150 143 164 172 178 170 170 175 172 173 176 178 179 177 185 189 189 197 203 210 214 221 227 234 237
256 250 250 229 228 258 260 252 263 259 247 244 242 226 200 205 223 197 194 169 177 186 199 185 180 177 180 177 179 183 182 183 184 187 192 194 200 208 215 221 226 231 231 235
243 254 256 244 71 286 261 239 218 255 238 242 248 243 203 169 243 217 216 198 210 236 238 196 179 177 190 190 191 196 192 191 190 190 194 199 204 212 217 224 229 236 235 237
243 248 254 18 342 248 240 283 49 252 244 241 260 291 307 248 253 226 219 204 196 210 247 200 175 174 190 196 206 205 197 190 191 195 197 203 211 217 218 229 238 245 245 241
241 247 245 53 275 263 333 344 287 259 251 260 277 281 239 227 229 215 213 193 181 213 276 287 205 187 196 210 222 216 208 205 194 208 219 201 208 223 226 231 234 235 235 244
262 277 7 339 307 317 302 287 290 281 282 265 257 245 245 260 236 189 175 191 226 279 314 298 242 218 223 230 234 221 211 216 208 212 231 227 225 225 222 222 236 243 243 246
260 251 269 274 284 303 311 299 297 299 287 267 266 267 308 321 266 209 201 250 293 301 308 301 278 252 253 255 250 232 220 222 220 222 228 227 236 235 237 235 240 246 251 255
253 267 277 258 277 293 307 303 302 309 298 288 286 289 305 317 330 320 285 288 287 291 299 301 296 282 273 269 258 244 236 240 239 242 240 239 241 252 253 261 261 260 270 274
261 272 275 287 287 286 284 285 285 289 295 297 290 294 301 304 310 298 298 297 284 293 299 300 293 274 275 275 260 252 246 245 253 255 247 247 246 249 231 234 208 217 238 260
278 286 287 292 285 281 275 278 283 279 274 279 285 290 293 294 294 291 290 289 292 298 300 300 295 284 275 272 266 259 259 261 261 260 256 255 257 257 262 235 212 214 216 220
273 274 268 269 276 278 276 281 280 278 269 264 272 286 290 289 288 287 285 286 288 291 291 291 289 284 280 271 265 264 262 258 257 257 258 257 257 259 261 263 261 255 229 212
265 264 265 268 268 262 261 260 264 267 265 265 264 269 276 280 278 279 281 279 282 283 285 290 291 291 286 275 268 269 268 265 266 268 265 264 264 265 265 265 267 270 272 244
260 258 253 251 249 251 253 252 253 266 275 279 274 269 274 279 284 284 284 281 279 283 290 293 291 290 281 272 269 263 260 257 263 270 268 263 258 259 261 261 264 266 262 262
250 248 247 250 252 255 256 259 260 262 276 280 277 272 273 274 277 282 292 294 288 286 286 285 287 290 285 279 276 275 275 258 240 257 261 259 256 252 253 255 261 268 268 267
248 250 252 252 251 255 254 256 261 266 273 281 280 272 272 278 285 295 302 304 296 289 285 288 297 296 283 277 278 278 274 273 267 262 260 256 254 250 250 252 251 254 257 241
244 247 250 250 249 247 240 244 253 258 258 261 264 269 277 284 289 295 302 303 296 291 297 306 311 285 282 287 289 271 270 270 269 268 264 250 248 251 250 249 247 247 255 257
243 238 240 238 239 237 229 232 244 249 254 260 265 268 274 281 286 290 297 294 297 307 311 317 293 285 285 286 290 281 278 273 272 272 269 265 262 259 253 249 248 247 250 258
237 220 218 217 217 228 227 227 229 234 249 266 270 271 275 281 283 287 288 289 307 318 307 285 279 294 299 315 285 281 283 285 284 280 273 268 268 268 265 262 256 249 247 254
202 192 196 204 207 199 217 231 238 251 266 281 280 277 279 284 289 289 288 298 320 346 302 300 316 352 333 306 286 290 294 298 299 299 291 282 273 269 269 268 268 261 246 243
160 160 171 183 177 138 280 282 278 281 286 288 285 286 292 306 308 301 310 347 346 5 316 343 8 358 316 291 300 307 309 307 311 311 306 300 293 282 276 274 272 273 269 264
131 140 147 153 146 130 114 16 348 323 309 290 283 284 284 283 277 284 12 86 24 334 331 28 359 317 288 288 308 313 316 316 317 321 322 320 302 294 288 282 275 269 269 272
130 153 120 210 190 126 207 242 265 279 280 292 315 308 278 288 315 347 0 18 29 313 330 55 225 281 286 307 310 317 322 338 339 327 317 315 306 307 303 297 293 290 283 279
272 270 298 289 314 298 280 281 298 316 317 323 349 5 1 17 4 313 298 315 321 307 309 319 310 266 293 313 321 327 337 344 317 307 326 326 327 321 306 301 296 295 295 297
235 227 235 243 237 256 277 288 299 312 331 349 353 1 9 20 3 349 346 337 328 317 323 331 335 331 338 345 349 347 348 349 345 343 341 335 332 330 328 315 309 310 309 308